Terminal Aerodrome Forecast
Issued by NWS Brownsville, TX

Home | Current Version | Previous Version | Text Only | Print | Product List | Glossary On
Versions: 1 2 3 4 5 6 7 8 9 10 11 12 13
000
FTUS44 KBRO 292346
TAFMFE
TAF
KMFE 292346Z 3000/3024 15017G22KT P6SM SKC
     FM300600 16011KT P6SM FEW020
     FM301500 16017G22KT P6SM SCT030=

USA.gov is the U.S. government's official web portal to all federal, state and local government web resources and services.